Flag for Belarus Weather past 2 weeks in Minsk, Belarus

Now
14 °F

Passing clouds.


Feels Like: 8 °F
Forecast: 11 / 17 °F
Wind: 3 mph from Southeast

Location: Loshitsa / Minsk International 1

Current Time: Dec 27, 2014 at 9:41:07 PM

Latest Report: Dec 27, 2014 at 8:30 PM


Visibility: N/A

Pressure: 29.98 "Hg

Humidity: 85%

Dew point: 10 °F

Location of MinskLocation

Historic Weather in Minsk — Graph

°F

Minsk temperature yesterday

Maximum temperature yesterday: 23 °F (at 4:00 PM)
Minimum temperature yesterday: 19 °F (at 7:00 AM)
Average temperature yesterday: 20 °F

Past Weeks' High & Low Weather Summary

 TemperatureHumidityPressure
High48 °F (Dec 19, 7:00 PM)100% (Dec 12, 8:00 PM)30.18 "Hg (Dec 12, 8:00 PM)
Low10 °F (Dec 27, 10:00 AM)63% (Dec 25, 8:00 PM)29.33 "Hg (Dec 22, 7:30 PM)
Average34 °F89%29.74 "Hg
* Reported Dec 12 8:00 PM — Dec 27 8:30 PM, Minsk, Weather by CustomWeather, © 2014

Note: Actual official high and low records may vary slightly from our data, if they occured in-between our weather recording intervals... More about our weather records

Advertising

Minsk weather history for previous 24 hours

 ConditionsComfort  
Time TempWeatherWind HumidityBarometerVisibility
8:30 PM
Dec 27
14 °FPassing clouds.3 mph85%29.98 "HgN/A
8:00 PM14 °FClear.3 mph85%29.98 "Hg10 mi
7:30 PM14 °FClear.6 mph92%30.01 "Hg10 mi
7:00 PM14 °FClear.6 mph92%30.01 "Hg10 mi
6:30 PM14 °FClear.3 mph92%30.01 "Hg10 mi
6:00 PM14 °FPassing clouds.6 mph92%30.01 "HgN/A
5:30 PM18 °FScattered clouds.6 mph86%30.01 "HgN/A
5:00 PM18 °FScattered clouds.6 mph86%30.01 "HgN/A
4:30 PM21 °FScattered clouds.3 mph80%30.04 "HgN/A
4:00 PM21 °FScattered clouds.3 mph80%30.04 "HgN/A
3:30 PM21 °FBroken clouds.6 mph80%30.04 "HgN/A
3:00 PM21 °FBroken clouds.6 mph80%30.04 "HgN/A
2:30 PM19 °FBroken clouds.6 mph79%30.07 "HgN/A
2:00 PM19 °FBroken clouds.6 mph79%30.07 "HgN/A
1:30 PM19 °FScattered clouds.3 mph86%30.07 "HgN/A
1:00 PM19 °FScattered clouds.3 mph86%30.09 "HgN/A
12:30 PM19 °FSunny.3 mph79%30.09 "Hg10 mi
12:00 PM19 °FSunny.1 mph79%30.09 "Hg10 mi
11:30 AM16 °FSunny.1 mph86%30.09 "Hg10 mi
11:00 AM16 °FSunny.1 mph86%30.12 "Hg10 mi
10:30 AM10 °FIce fog.1 mph92%30.12 "Hg3 mi
10:00 AM10 °FIce fog.1 mph92%30.12 "Hg3 mi
9:30 AM12 °FIce fog.1 mph85%30.12 "Hg4 mi
9:00 AM12 °FClear.1 mph85%30.12 "Hg4 mi
8:30 AM12 °FClear.1 mph92%30.12 "Hg4 mi
8:00 AM12 °FClear.No wind92%30.12 "Hg4 mi
7:30 AM14 °FClear.No wind85%30.15 "Hg10 mi
Weather by CustomWeather, © 2014

See weather overviewHow to use our weather pages